TimePST,TemperatureF,Dew PointF,Humidity,Sea Level PressureIn,VisibilityMPH,Wind Direction,Wind SpeedMPH,Gust SpeedMPH,PrecipitationIn,Events,Conditions,WindDirDegrees,DateUTC
12:15 AM,26.6,17.6,69,30.01,10.0,Calm,Calm,-,N/A,,Mostly Cloudy,0,2013-11-04 08:15:00
12:35 AM,28.4,19.4,69,30.01,10.0,South,3.5,-,N/A,,Scattered Clouds,190,2013-11-04 08:35:00
12:55 AM,26.6,17.6,69,30.01,10.0,Calm,Calm,-,N/A,,Scattered Clouds,0,2013-11-04 08:55:00
1:15 AM,26.6,17.6,69,30.00,10.0,Calm,Calm,-,N/A,,Partly Cloudy,0,2013-11-04 09:15:00
1:35 AM,28.4,17.6,64,30.00,10.0,SE,3.5,-,N/A,,Clear,130,2013-11-04 09:35:00
1:55 AM,28.4,19.4,69,30.00,10.0,Calm,Calm,-,N/A,,Mostly Cloudy,0,2013-11-04 09:55:00
2:15 AM,28.4,19.4,69,30.00,10.0,Calm,Calm,-,N/A,,Overcast,0,2013-11-04 10:15:00
2:35 AM,28.4,19.4,69,30.00,10.0,Calm,Calm,-,N/A,,Mostly Cloudy,0,2013-11-04 10:35:00
2:55 AM,26.6,17.6,69,30.00,10.0,Calm,Calm,-,N/A,,Mostly Cloudy,0,2013-11-04 10:55:00
3:15 AM,24.8,15.8,69,30.01,10.0,North,-9999.0,-,N/A,,Partly Cloudy,0,2013-11-04 11:15:00
3:35 AM,24.8,15.8,69,30.01,10.0,Calm,Calm,-,N/A,,Partly Cloudy,0,2013-11-04 11:35:00
3:55 AM,24.8,14.0,64,30.01,10.0,Calm,Calm,-,N/A,,Clear,0,2013-11-04 11:55:00
4:15 AM,26.6,15.8,64,30.01,10.0,East,4.6,-,N/A,,Clear,90,2013-11-04 12:15:00
4:35 AM,30.2,21.2,69,30.01,10.0,ENE,4.6,-,N/A,,Clear,60,2013-11-04 12:35:00
4:55 AM,32.0,19.4,60,30.01,10.0,NE,5.8,-,N/A,,Mostly Cloudy,40,2013-11-04 12:55:00
5:15 AM,32.0,19.4,60,30.02,10.0,Calm,Calm,-,N/A,,Mostly Cloudy,0,2013-11-04 13:15:00
5:35 AM,30.2,17.6,60,30.02,10.0,East,4.6,-,N/A,,Overcast,80,2013-11-04 13:35:00
5:55 AM,28.4,15.8,59,30.03,10.0,East,6.9,-,N/A,,Overcast,90,2013-11-04 13:55:00
6:15 AM,30.2,19.4,64,30.03,10.0,ESE,5.8,-,N/A,,Overcast,120,2013-11-04 14:15:00
6:35 AM,32.0,19.4,60,30.04,10.0,NNE,3.5,-,N/A,,Overcast,20,2013-11-04 14:35:00
6:55 AM,30.2,17.6,60,30.05,10.0,NNE,5.8,-,N/A,,Overcast,20,2013-11-04 14:55:00
7:15 AM,32.0,19.4,60,30.05,10.0,Calm,Calm,-,N/A,,Overcast,0,2013-11-04 15:15:00
7:35 AM,33.8,19.4,56,30.06,10.0,NE,3.5,-,N/A,,Overcast,50,2013-11-04 15:35:00
7:55 AM,33.8,19.4,56,30.07,10.0,Calm,Calm,-,N/A,,Overcast,0,2013-11-04 15:55:00
8:15 AM,33.8,21.2,60,30.07,10.0,NW,4.6,-,N/A,,Mostly Cloudy,310,2013-11-04 16:15:00
8:35 AM,33.8,21.2,60,30.08,10.0,East,3.5,-,N/A,,Overcast,90,2013-11-04 16:35:00
8:55 AM,33.8,21.2,60,30.08,10.0,East,3.5,-,N/A,,Overcast,80,2013-11-04 16:55:00
9:15 AM,33.8,21.2,60,30.08,10.0,East,3.5,-,N/A,,Overcast,80,2013-11-04 17:15:00
9:35 AM,35.6,23.0,60,30.08,10.0,East,8.1,-,N/A,,Overcast,100,2013-11-04 17:35:00
9:55 AM,37.4,24.8,60,30.08,10.0,ESE,4.6,-,0.02,,Overcast,110,2013-11-04 17:55:00
10:15 AM,37.4,23.0,56,30.09,10.0,Calm,Calm,-,N/A,,Overcast,0,2013-11-04 18:15:00
10:35 AM,37.4,21.2,52,30.09,10.0,Calm,Calm,-,N/A,,Overcast,0,2013-11-04 18:35:00
10:55 AM,37.4,21.2,52,30.09,10.0,Calm,Calm,-,N/A,,Overcast,0,2013-11-04 18:55:00
11:15 AM,37.4,21.2,52,30.09,10.0,Calm,Calm,-,N/A,,Mostly Cloudy,0,2013-11-04 19:15:00
11:35 AM,39.2,24.8,56,30.09,10.0,Calm,Calm,-,N/A,,Overcast,0,2013-11-04 19:35:00
11:55 AM,35.6,19.4,52,30.10,3.0,NW,6.9,-,N/A,,Overcast,320,2013-11-04 19:55:00
12:15 PM,35.6,21.2,56,30.09,6.0,ENE,4.6,-,N/A,,Mostly Cloudy,60,2013-11-04 20:15:00
12:35 PM,37.4,23.0,56,30.09,10.0,ENE,3.5,-,N/A,,Mostly Cloudy,70,2013-11-04 20:35:00
12:55 PM,39.2,21.2,49,30.09,10.0,Calm,Calm,-,N/A,,Mostly Cloudy,0,2013-11-04 20:55:00
1:15 PM,39.2,21.2,49,30.09,10.0,Calm,Calm,-,N/A,,Scattered Clouds,0,2013-11-04 21:15:00
1:35 PM,37.4,21.2,52,30.09,10.0,NE,11.5,-,N/A,,Partly Cloudy,50,2013-11-04 21:35:00
1:55 PM,37.4,21.2,52,30.09,10.0,ENE,8.1,-,N/A,,Partly Cloudy,70,2013-11-04 21:55:00
2:15 PM,37.4,21.2,52,30.09,10.0,East,5.8,-,N/A,,Partly Cloudy,90,2013-11-04 22:15:00
2:35 PM,39.2,21.2,49,30.09,10.0,NE,6.9,-,N/A,,Mostly Cloudy,40,2013-11-04 22:35:00
2:55 PM,37.4,19.4,48,30.09,10.0,ENE,4.6,-,N/A,,Scattered Clouds,70,2013-11-04 22:55:00
3:15 PM,39.2,21.2,49,30.10,10.0,Calm,Calm,-,N/A,,Overcast,0,2013-11-04 23:15:00
3:35 PM,39.2,21.2,49,30.09,10.0,Calm,Calm,-,N/A,,Scattered Clouds,0,2013-11-04 23:35:00
3:55 PM,37.4,19.4,48,30.09,10.0,SW,4.6,-,N/A,,Partly Cloudy,220,2013-11-04 23:55:00
4:15 PM,35.6,19.4,52,30.10,10.0,SW,3.5,-,N/A,,Scattered Clouds,220,2013-11-05 00:15:00
4:35 PM,35.6,19.4,52,30.10,10.0,SW,3.5,-,N/A,,Partly Cloudy,220,2013-11-05 00:35:00
4:55 PM,33.8,17.6,52,30.11,10.0,SW,3.5,-,N/A,,Clear,230,2013-11-05 00:55:00
5:15 PM,32.0,17.6,55,30.12,10.0,Calm,Calm,-,N/A,,Clear,0,2013-11-05 01:15:00
5:35 PM,30.2,17.6,60,30.12,10.0,SSW,4.6,-,N/A,,Clear,200,2013-11-05 01:35:00
5:55 PM,30.2,17.6,60,30.13,10.0,SW,5.8,-,N/A,,Clear,220,2013-11-05 01:55:00
6:15 PM,28.4,15.8,59,30.14,10.0,SSW,4.6,-,N/A,,Clear,210,2013-11-05 02:15:00
6:35 PM,28.4,15.8,59,30.14,10.0,West,3.5,-,N/A,,Clear,260,2013-11-05 02:35:00
6:55 PM,28.4,15.8,59,30.14,10.0,WSW,3.5,-,N/A,,Clear,240,2013-11-05 02:55:00
7:15 PM,28.4,14.0,55,30.14,10.0,Calm,Calm,-,N/A,,Clear,0,2013-11-05 03:15:00
7:35 PM,28.4,15.8,59,30.14,10.0,Calm,Calm,-,N/A,,Clear,0,2013-11-05 03:35:00
7:55 PM,28.4,15.8,59,30.15,10.0,Calm,Calm,-,N/A,,Clear,0,2013-11-05 03:55:00
8:15 PM,26.6,15.8,64,30.15,10.0,Calm,Calm,-,N/A,,Clear,0,2013-11-05 04:15:00
8:35 PM,26.6,15.8,64,30.15,10.0,ESE,3.5,-,N/A,,Clear,120,2013-11-05 04:35:00
8:55 PM,28.4,17.6,64,30.15,10.0,Calm,Calm,-,N/A,,Clear,0,2013-11-05 04:55:00
9:15 PM,24.8,12.2,59,30.16,10.0,Calm,Calm,-,N/A,,Clear,0,2013-11-05 05:15:00
9:35 PM,24.8,12.2,59,30.16,10.0,Calm,Calm,-,N/A,,Clear,0,2013-11-05 05:35:00
9:55 PM,23.0,10.4,59,30.16,10.0,Calm,Calm,-,N/A,,Clear,0,2013-11-05 05:55:00
10:15 PM,23.0,12.2,63,30.16,10.0,NNW,3.5,-,N/A,,Clear,330,2013-11-05 06:15:00
10:35 PM,24.8,12.2,59,30.16,10.0,North,5.8,-,N/A,,Clear,350,2013-11-05 06:35:00
10:55 PM,21.2,12.2,68,30.16,10.0,NNE,3.5,-,N/A,,Clear,20,2013-11-05 06:55:00
11:15 PM,21.2,10.4,63,30.17,10.0,Calm,Calm,-,N/A,,Clear,0,2013-11-05 07:15:00
11:35 PM,23.0,12.2,63,30.17,10.0,Calm,Calm,-,N/A,,Scattered Clouds,0,2013-11-05 07:35:00
11:55 PM,24.8,12.2,59,30.17,10.0,Calm,Calm,-,N/A,,Overcast,0,2013-11-05 07:55:00